CW7992 Leck/Flensburg DE current weather conditions

sailwx.info

Wind from 086 at 1 knots gusting 12

Air temperature 27.8° C
Dewpoint 19.0° C

Last reported at 2020-Aug-10 17:31 UTC.
Time now 2020-Aug-10 19:00 UTC

Location: N 54°52' E 008°55'.
View on Google Maps.

See reports from other nearby stations

  
Tides and Currents Weather Stations Pressure Air Temp Water Temp Dewpoint Dewpoint Depression Visibility Wind Speed Wind Dir Waves Ship Positions
date/time (UTC)wind fromknots sea level pressurealtimeterstation pressurevisibilityair tempwater tempwave heightnotes
2020-Aug-10 17:31 086 1 gusting 12 27.8
2020-Aug-10 17:11 053 0 gusting 1 28.3
2020-Aug-10 16:51 095 2 gusting 6 28.9
2020-Aug-10 16:31 077 3 gusting 8 28.9
2020-Aug-10 16:11 078 4 gusting 9 29.4
2020-Aug-10 16:01 062 2 gusting 10 29.4
2020-Aug-10 15:41 078 0 gusting 6 30.0
2020-Aug-10 15:11 055 1 gusting 9 30.0
2020-Aug-10 14:21 026 1 gusting 5 30.6
2020-Aug-10 14:11 078 2 gusting 6 30.6
2020-Aug-10 13:51 044 4 gusting 8 30.6
2020-Aug-10 13:41 026 4 gusting 9 30.6
2020-Aug-10 13:01 051 3 gusting 6 30.0
2020-Aug-10 12:31 126 3 gusting 6 30.0
2020-Aug-10 12:21 166 1 gusting 6 30.0
2020-Aug-10 12:01 059 1 gusting 6 29.4
2020-Aug-10 11:51 062 3 gusting 6 30.0
2020-Aug-10 11:41 059 2 gusting 6 29.4
2020-Aug-10 11:21 057 6 gusting 9 29.4
2020-Aug-10 10:41 032 5 gusting 10 28.9
2020-Aug-10 09:51 023 4 gusting 10 27.8
2020-Aug-10 09:31 034 5 gusting 8 27.8
2020-Aug-10 09:21 043 6 gusting 11 27.2
2020-Aug-10 09:01 040 5 gusting 9 27.2
2020-Aug-10 08:51 042 6 gusting 9 26.7
2020-Aug-10 08:31 017 6 gusting 10 26.7
2020-Aug-10 08:01 034 6 gusting 10 25.0
2020-Aug-10 07:51 016 4 gusting 9 25.0
2020-Aug-10 07:31 044 2 gusting 9 23.9
2020-Aug-10 07:21 035 3 gusting 12 23.3
2020-Aug-10 07:11 059 5 gusting 9 23.3
2020-Aug-10 07:01 057 2 gusting 6 22.8
2020-Aug-10 06:51 049 3 gusting 6 22.2
2020-Aug-10 06:31 081 4 gusting 9 21.1
2020-Aug-10 06:11 061 2 gusting 5 19.4
2020-Aug-10 06:01 046 0 gusting 5 18.9
2020-Aug-10 05:51 046 1 gusting 3 18.3
2020-Aug-10 05:41 045 1 gusting 3 17.8
2020-Aug-10 05:31 045 2 gusting 6 17.8
2020-Aug-10 05:21 033 1 gusting 4 17.8
2020-Aug-10 05:11 032 3 gusting 5 17.2
2020-Aug-10 05:01 038 1 gusting 5 17.2
2020-Aug-10 04:51 030 2 gusting 4 17.2
2020-Aug-10 04:31 023 1 gusting 5 16.7
2020-Aug-10 04:11 057 3 gusting 5 17.2
2020-Aug-10 04:01 049 2 gusting 6 16.7
2020-Aug-10 03:51 041 1 gusting 1 16.7
2020-Aug-10 03:41 040 0 gusting 1 16.7
2020-Aug-10 03:31 040 0 gusting 3 16.7
2020-Aug-10 03:11 032 0 gusting 1 16.7
2020-Aug-10 03:01 032 0 gusting 4 16.7
2020-Aug-10 02:51 024 1 gusting 4 16.7
2020-Aug-10 02:41 024 1 gusting 4 17.2
2020-Aug-10 02:31 042 2 gusting 6 17.2
2020-Aug-10 02:21 029 2 gusting 5 17.2
2020-Aug-10 01:21 027 1 gusting 4 17.8
2020-Aug-10 01:01 027 1 gusting 4 17.8
2020-Aug-10 00:31 027 1 gusting 4 18.3
2020-Aug-10 00:21 027 0 gusting 1 18.3
2020-Aug-10 00:11 027 0 gusting 0 18.3
2020-Aug-10 00:01 027 2 gusting 4 18.3
2020-Aug-09 23:51 027 1 gusting 3 18.9
2020-Aug-09 23:41 027 1 gusting 4 18.9
2020-Aug-09 23:21 027 1 gusting 4 18.9
2020-Aug-09 22:41 026 0 gusting 1 19.4
2020-Aug-09 22:01 047 19.4
2020-Aug-09 21:31 047 20.0
2020-Aug-09 21:11 047 0 gusting 1 19.4
2020-Aug-09 17:31 037 2 gusting 4 27.2
2020-Aug-09 17:01 061 3 gusting 6 28.3
2020-Aug-09 16:41 026 3 gusting 10 28.3
2020-Aug-09 16:31 065 3 gusting 6 28.9
2020-Aug-09 16:21 046 3 gusting 6 28.9
2020-Aug-09 16:11 022 5 gusting 8 28.9
2020-Aug-09 16:01 090 1 gusting 9 29.4
2020-Aug-09 15:31 066 2 gusting 6 29.4
2020-Aug-09 15:21 044 1 gusting 6 30.0
2020-Aug-09 15:11 053 3 gusting 6 30.0
2020-Aug-09 15:01 064 4 gusting 8 30.0
2020-Aug-09 14:51 056 3 gusting 8 30.0
2020-Aug-09 14:31 057 5 gusting 8 30.6
2020-Aug-09 14:21 040 4 gusting 9 30.6
2020-Aug-09 14:11 061 3 gusting 6 30.6
2020-Aug-09 14:01 062 1 gusting 6 30.6
2020-Aug-09 13:21 042 3 gusting 8 30.6
2020-Aug-09 13:11 042 4 gusting 8 30.6
2020-Aug-09 13:01 034 3 gusting 8 30.6
2020-Aug-09 12:51 028 1 gusting 6 30.6
2020-Aug-09 12:41 120 6 gusting 9 30.6
2020-Aug-09 12:31 030 2 gusting 6 30.0
2020-Aug-09 12:11 071 4 gusting 8 30.0
2020-Aug-09 12:01 022 5 gusting 6 30.0
2020-Aug-09 11:51 028 1 gusting 8 30.0
2020-Aug-09 11:41 039 0 gusting 6 30.0
2020-Aug-09 11:31 042 4 gusting 11 29.4
2020-Aug-09 11:21 037 2 gusting 11 28.9
2020-Aug-09 11:11 076 3 gusting 8 29.4
2020-Aug-09 10:51 063 3 gusting 6 28.3
2020-Aug-09 10:21 057 4 gusting 6 27.8
2020-Aug-09 10:11 044 2 gusting 8 27.2
2020-Aug-09 09:41 032 4 gusting 8 26.7
2020-Aug-09 09:31 026 4 gusting 6 26.1
2020-Aug-09 09:21 053 5 gusting 6 26.1
2020-Aug-09 08:51 027 2 gusting 6 26.1
2020-Aug-09 08:41 028 2 gusting 4 25.6
2020-Aug-09 08:31 023 2 gusting 5 24.4
2020-Aug-09 08:21 038 2 gusting 5 24.4
2020-Aug-09 08:01 030 1 gusting 5 25.0
2020-Aug-09 07:51 020 1 gusting 4 23.9
2020-Aug-09 07:41 015 0 gusting 5 23.9
2020-Aug-09 07:31 020 1 gusting 5 23.3
2020-Aug-09 07:21 013 0 gusting 1 22.8
2020-Aug-09 07:11 013 22.8
2020-Aug-09 06:51 038 1 gusting 4 22.2
2020-Aug-09 06:41 037 1 gusting 4 21.7
2020-Aug-09 06:31 037 21.1
2020-Aug-09 06:21 037 0 gusting 4 20.6
2020-Aug-09 06:01 287 1 gusting 4 20.6
2020-Aug-09 05:51 275 20.6
2020-Aug-09 05:41 275 20.0
2020-Aug-09 05:31 275 20.0
2020-Aug-09 05:11 275 19.4
2020-Aug-09 04:51 275 19.4
2020-Aug-09 04:21 275 18.9
2020-Aug-09 04:11 275 19.4
2020-Aug-09 04:01 275 19.4
2020-Aug-09 03:51 275 19.4
2020-Aug-09 03:11 275 19.4
2020-Aug-09 03:01 275 19.4
2020-Aug-09 02:51 275 20.0
2020-Aug-09 02:31 275 20.0
2020-Aug-09 02:11 275 20.0
2020-Aug-09 02:01 275 20.0
2020-Aug-09 01:51 275 20.0
2020-Aug-09 01:31 275 20.6
2020-Aug-09 01:21 275 20.6
2020-Aug-09 00:51 275 20.6
2020-Aug-09 00:31 275 20.0
2020-Aug-09 00:21 275 20.0
2020-Aug-09 00:11 275 20.0
2020-Aug-09 00:01 275 20.6
2020-Aug-08 23:51 275 20.6
2020-Aug-08 23:21 275 21.1
2020-Aug-08 23:01 275 21.7
2020-Aug-08 22:41 300 21.7
2020-Aug-08 22:31 300 21.7
2020-Aug-08 22:21 300 21.7
2020-Aug-08 22:11 300 21.7
2020-Aug-08 22:01 300 21.7
2020-Aug-08 21:51 300 21.7
2020-Aug-08 21:41 300 21.7
2020-Aug-08 21:11 300 21.7
2020-Aug-08 21:01 300 21.7
2020-Aug-08 20:51 300 21.7
2020-Aug-08 20:41 300 21.7
2020-Aug-08 20:31 300 21.7
2020-Aug-08 20:21 300 21.7
2020-Aug-08 19:21 300 23.9
2020-Aug-08 19:11 300 24.4